RH
4 5 5 6 4 4 5 9 12 15 16 15 14 13 14 16 17 18 18 18 18 17 18 18 18 20 20 20 21 18 16 16 16 16 12 11 12 10 9 10 14 18 20 22 18 13 9 7 12 16 14 14 14 17 18 21 18 16 30 30 32 45 44 44 41 34 35 41 50 45 40 46 42 35 36 38 39 40 41 40 39 38 35 33 32 32 31 28
5 5 6 5 3 5 9 14 16 17 17 17 18 17 17 17 16 17 17 17 17 17 19 19 19 19 20 20 20 19 19 21 21 16 11 11 13 11 10 9 8 10 12 12 10 7 6 5 9 14 14 12 14 16 18 22 17 23 41 36 43 61 49 37 35 34 35 36 45 44 38 42 39 34 33 39 42 40 44 44 39 40 39 36 35 34 36 34
5 5 5 3 4 8 13 16 17 19 20 20 20 19 19 18 17 17 16 17 17 18 19 19 19 18 20 20 20 22 22 25 23 15 11 11 12 12 10 9 8 7 7 8 7 8 10 8 9 14 15 13 14 18 18 20 21 23 30 36 55 67 44 26 29 31 29 30 40 43 41 42 37 33 34 40 44 44 48 45 40 41 35 34 38 37 38 38
5 4 4 3 6 12 16 18 20 21 21 21 21 21 20 19 19 17 16 17 18 19 19 19 18 17 19 18 19 21 21 27 25 15 13 13 13 13 12 11 9 9 9 9 10 12 14 12 13 15 15 16 15 18 21 20 23 23 28 43 49 44 34 26 26 28 27 27 32 37 42 43 37 34 35 37 42 47 45 34 31 33 24 24 33 38 39 37
4 5 4 5 10 15 19 21 22 21 22 22 22 23 22 21 20 18 18 18 19 19 18 17 17 17 19 17 19 20 23 33 28 15 15 15 14 15 14 13 12 12 11 12 13 15 16 14 14 15 15 17 16 17 21 21 21 24 30 38 35 29 29 27 26 29 28 26 29 35 40 40 35 34 34 37 42 40 30 24 22 22 20 20 24 32 37 36
6 6 5 9 14 18 20 21 21 21 23 24 24 25 24 23 22 21 20 19 19 17 16 17 19 22 22 22 22 23 28 33 22 15 17 15 14 16 15 15 14 14 14 15 15 14 16 14 13 14 15 19 23 23 24 25 23 26 33 31 26 26 28 26 26 28 26 27 32 36 37 34 32 33 32 35 39 28 19 22 24 23 23 22 23 26 32 36
9 7 8 12 17 20 21 21 21 22 24 25 26 25 24 23 22 22 20 19 18 16 17 19 23 25 25 27 24 23 24 21 17 17 19 17 16 17 16 17 17 16 17 17 15 15 15 14 15 13 17 24 27 29 30 31 26 26 38 38 27 25 25 24 24 25 26 28 29 31 33 33 35 37 33 32 31 24 22 24 26 27 26 26 27 26 29 31
9 8 11 15 19 21 20 20 21 23 25 25 25 24 23 22 22 22 20 19 17 17 20 22 27 27 27 27 25 28 24 16 18 19 18 19 18 17 17 18 18 18 17 18 17 16 15 15 18 16 21 27 26 31 32 30 34 38 43 40 30 26 25 23 25 27 27 27 26 29 34 33 31 34 34 30 22 19 21 22 23 25 27 29 28 27 28 29
10 12 16 19 20 20 20 21 22 24 24 24 24 23 23 21 20 20 19 19 18 18 21 25 27 24 23 24 27 33 25 17 19 18 18 19 17 17 17 16 17 17 16 19 18 17 18 18 19 19 23 27 26 34 33 26 37 44 40 37 34 32 30 27 28 27 26 28 29 32 35 31 26 29 29 21 14 14 16 18 19 20 23 26 27 28 28 29
16 18 19 20 20 19 20 22 23 24 24 23 23 23 22 21 20 19 18 18 18 20 24 28 29 26 21 19 27 31 21 19 20 18 18 17 17 17 17 18 17 17 17 18 19 17 18 18 21 21 20 23 28 36 37 31 35 39 35 34 34 33 32 31 29 27 26 28 29 32 36 31 25 29 30 18 11 14 16 17 17 19 20 20 22 24 26 28
20 20 20 20 20 20 21 22 24 24 23 23 22 23 22 21 20 19 18 17 19 23 27 30 31 29 23 16 22 26 20 20 20 18 18 17 19 18 18 21 20 19 18 17 18 17 17 19 21 19 19 23 29 33 35 32 31 33 32 35 39 36 32 32 32 29 28 28 26 31 36 32 30 36 31 17 12 15 17 17 17 20 20 19 19 20 22 25
20 20 20 20 19 20 22 23 24 23 23 23 22 23 22 22 22 21 19 17 20 24 27 31 30 30 25 18 22 26 24 22 21 19 19 19 21 21 20 22 23 20 19 19 18 17 16 19 19 19 23 28 33 34 31 30 31 33 33 39 52 50 38 34 34 30 28 30 26 28 35 35 40 40 24 14 15 18 19 19 19 19 19 20 19 20 21 21
20 19 19 19 19 21 23 23 23 22 23 23 23 23 22 22 22 22 20 18 22 25 30 33 32 30 23 22 25 26 24 23 22 20 20 22 23 24 22 22 24 21 20 20 20 20 17 18 20 21 22 28 36 33 29 29 27 33 37 45 57 55 46 35 32 31 28 30 26 29 40 38 37 34 20 18 20 19 22 22 21 22 22 22 21 21 20 19
20 19 19 19 20 22 23 23 22 22 23 23 23 23 23 22 21 22 20 20 22 24 30 33 33 30 23 24 25 23 24 23 22 21 20 21 21 22 22 22 23 21 22 22 23 22 20 22 22 22 24 29 32 32 45 50 40 40 48 67 71 49 45 42 33 33 31 32 26 28 47 42 30 28 23 24 24 22 27 26 25 27 25 25 24 23 22 20
19 19 18 18 21 22 22 22 22 22 23 23 22 22 22 22 21 20 20 22 23 25 29 30 29 27 23 23 23 21 21 19 18 19 19 19 18 19 18 19 19 19 21 22 23 23 24 24 24 27 27 27 33 48 70 73 69 66 49 63 75 50 49 50 37 36 33 34 30 29 52 53 34 28 24 24 27 27 29 28 27 28 27 26 25 23 23 22
18 18 18 19 22 22 21 22 22 22 23 23 22 21 22 22 22 21 22 24 26 27 28 29 28 26 24 22 21 20 19 18 17 16 18 18 17 17 17 18 19 19 20 22 24 23 24 24 27 33 28 33 50 67 81 74 77 85 53 45 60 54 58 54 38 42 40 35 36 35 48 53 37 28 24 23 27 29 29 29 27 26 26 25 25 24 23 22
17 17 18 20 22 21 21 22 22 22 22 22 22 21 21 22 22 22 23 25 27 24 23 24 24 24 24 20 19 19 18 18 16 15 17 18 17 17 18 19 21 21 21 23 23 22 25 27 33 38 38 53 65 65 72 62 59 79 72 60 63 60 63 60 45 46 50 48 47 47 49 49 40 33 30 24 23 28 29 30 28 27 26 24 24 24 23 23
16 17 18 21 21 21 21 21 21 21 21 21 21 20 20 20 21 21 21 23 25 25 22 20 21 27 24 18 20 20 19 19 18 16 16 18 20 21 21 22 23 22 21 23 22 23 26 26 35 48 51 59 66 58 51 45 46 63 71 71 75 70 64 61 52 50 58 57 52 55 55 49 41 34 31 24 23 29 30 29 29 28 26 25 24 22 21 22
16 17 18 20 21 20 20 20 22 23 25 26 24 23 21 18 18 18 18 18 22 26 26 20 21 29 24 19 20 18 18 19 18 17 15 18 21 21 22 24 24 20 21 27 27 28 30 34 47 58 56 57 68 63 45 44 53 59 68 73 74 71 66 60 56 62 61 51 49 54 53 47 39 36 33 27 23 26 28 26 25 27 27 24 22 21 20 21
16 17 18 20 20 20 19 22 25 25 26 26 26 26 22 22 24 22 17 17 20 22 24 21 20 23 20 21 20 16 17 17 17 18 16 16 18 18 17 21 25 23 31 41 37 34 37 51 62 59 57 62 69 68 57 60 67 67 72 76 73 71 67 52 53 68 61 51 54 53 53 51 42 39 35 30 27 25 30 31 26 28 28 25 24 23 22 24
17 16 18 20 19 20 20 22 24 21 21 19 19 21 19 25 31 27 20 18 20 19 19 20 21 21 20 22 22 18 15 12 13 14 16 18 17 18 17 26 39 34 42 53 43 40 40 46 57 61 67 67 68 74 70 69 73 71 68 68 68 66 59 46 52 69 60 54 59 53 54 51 41 40 37 35 31 23 31 36 30 29 30 28 28 28 28 29
17 17 19 19 18 20 20 21 20 17 18 16 15 17 17 20 24 25 25 23 21 20 20 19 19 22 21 21 23 20 15 14 14 11 16 20 19 24 24 37 57 49 53 60 48 52 53 45 52 65 71 67 71 82 76 70 71 67 64 64 61 56 57 56 59 66 56 53 62 61 58 51 43 43 37 37 31 20 24 32 33 34 31 27 27 28 28 27
17 19 19 19 20 20 20 20 18 18 17 15 15 16 17 18 18 23 26 23 22 22 21 18 17 20 21 21 21 20 17 19 23 16 15 19 23 32 31 43 65 59 57 61 45 44 46 41 51 64 68 61 65 79 75 67 63 57 57 57 53 52 56 56 56 59 56 56 63 65 58 53 55 45 31 31 28 18 19 26 32 32 27 24 23 24 23 23
18 19 18 20 20 19 20 19 18 19 16 16 17 16 18 18 17 21 24 23 21 21 20 17 17 18 20 21 20 23 22 21 26 20 15 20 24 33 36 42 57 52 54 66 55 45 41 41 50 63 76 67 56 70 70 56 53 56 57 51 46 54 57 55 61 63 61 61 61 61 55 51 58 47 32 35 29 20 20 25 28 24 21 20 19 20 19 19
18 19 18 20 19 19 18 16 19 18 16 18 17 17 19 18 18 20 28 32 21 16 20 18 17 18 20 22 20 23 24 20 24 22 18 20 23 34 36 33 42 43 50 63 56 47 46 48 48 55 77 76 57 61 60 52 55 56 60 56 45 56 65 67 73 67 60 61 55 58 56 47 46 40 39 46 35 24 25 31 32 22 19 19 17 19 17 17
19 18 18 19 17 17 16 17 18 15 18 20 16 20 19 17 20 17 32 51 34 15 19 18 17 20 19 20 21 23 26 22 20 19 18 21 23 31 36 35 39 42 48 55 46 40 45 52 58 59 66 64 50 49 51 54 57 46 50 59 54 63 70 71 75 62 55 57 53 60 58 44 39 33 37 48 39 32 33 35 35 25 21 20 17 19 17 16
18 17 17 17 16 17 19 18 15 16 22 20 17 22 16 17 20 13 33 59 38 13 18 20 17 19 20 20 20 24 28 22 19 16 15 21 23 22 34 46 44 41 52 60 45 36 46 55 64 65 59 51 40 40 47 51 49 43 49 58 60 65 66 69 71 64 66 65 62 74 65 51 57 46 36 39 34 37 39 33 33 26 22 23 19 18 18 16
18 16 16 17 16 20 22 17 14 19 23 20 19 17 15 20 18 21 43 45 23 14 19 19 17 16 18 18 18 23 26 22 22 20 13 19 22 18 29 42 45 46 53 56 41 36 50 52 52 55 52 44 34 36 50 51 47 55 62 60 64 67 68 76 75 76 82 62 53 75 63 45 59 48 32 35 31 35 38 31 33 29 21 22 21 18 17 17
17 16 17 17 19 20 19 16 16 18 18 18 16 12 16 19 18 41 58 30 11 21 21 17 19 18 17 19 19 20 22 22 25 22 13 15 18 20 28 32 40 49 43 42 41 38 47 48 48 57 53 42 41 50 61 57 49 57 63 59 67 80 81 80 78 82 84 59 52 69 53 34 45 38 28 33 28 29 36 35 34 29 20 20 21 19 18 19
17 17 17 19 20 17 16 18 17 16 17 15 13 14 17 24 40 62 54 22 16 25 20 17 20 23 28 32 29 26 25 25 25 22 17 18 18 21 28 24 33 48 43 40 40 36 45 52 53 57 51 45 54 60 64 64 53 53 66 60 57 72 80 81 88 83 62 47 56 66 49 37 45 46 39 36 29 25 34 38 32 26 21 17 18 19 20 22
16 16 17 18 19 17 17 18 15 15 17 11 13 16 14 34 64 59 29 16 22 27 26 29 32 37 46 46 35 33 38 31 26 29 30 33 30 28 32 31 37 48 45 39 37 40 48 48 47 49 45 47 55 53 56 70 63 53 64 55 36 47 63 74 86 72 38 25 42 58 49 40 48 51 41 37 40 36 36 39 33 31 27 18 17 17 17 21
17 16 17 17 17 17 16 17 17 15 14 12 16 20 24 43 53 39 28 25 20 25 32 37 46 52 58 58 43 39 45 36 30 37 42 48 49 45 45 49 46 36 34 39 39 42 43 38 41 46 45 48 49 42 45 65 64 49 56 58 48 51 54 56 59 54 42 29 29 39 40 38 44 42 32 31 38 39 37 37 34 33 28 18 17 16 14 18
18 16 17 16 16 17 15 15 15 11 12 15 17 24 40 47 32 28 44 37 19 29 40 42 57 64 58 52 45 42 43 36 32 35 39 46 52 54 54 57 53 31 27 40 41 41 41 40 44 41 40 46 45 36 36 49 52 43 52 64 60 54 46 46 49 46 43 34 24 29 41 46 40 36 40 40 35 32 29 27 26 27 26 23 24 26 28 31
16 16 17 16 15 15 13 13 12 11 14 16 22 32 38 34 28 33 48 50 42 47 50 50 59 63 50 39 39 44 39 33 37 41 44 47 52 59 56 55 57 45 39 43 39 40 37 32 37 31 28 39 44 38 35 42 49 52 62 63 55 52 44 44 53 49 42 42 36 30 44 56 40 28 39 37 28 28 26 26 31 34 37 40 41 44 47 48
16 16 14 13 13 12 12 12 11 14 14 11 26 45 40 29 35 40 44 58 63 55 55 55 51 51 46 40 43 42 30 27 39 46 50 51 53 57 55 53 55 53 49 42 35 43 40 31 37 35 31 39 45 45 45 44 47 56 62 56 53 57 49 46 59 54 44 55 60 46 50 61 41 23 32 36 32 34 36 42 48 50 52 52 52 55 55 54
12 11 10 12 13 12 14 13 12 15 12 10 26 46 46 37 38 42 42 52 57 54 60 58 48 45 44 44 48 42 30 28 36 41 43 48 50 50 55 58 55 50 49 43 40 44 37 31 40 40 40 47 45 46 50 42 36 43 48 46 51 57 51 52 66 63 50 57 65 55 50 52 41 30 36 44 45 45 51 57 55 54 56 54 55 58 57 56
11 11 12 12 12 13 13 9 11 13 6 14 38 50 50 44 41 49 53 53 55 60 64 52 35 35 40 44 47 44 39 36 36 35 34 40 40 41 53 57 49 47 48 45 48 48 36 36 46 42 37 44 44 45 53 48 40 42 44 45 54 64 64 64 68 70 68 64 60 53 47 44 45 47 50 55 56 53 54 57 55 54 54 54 55 56 55 54
11 12 10 12 12 11 10 7 10 9 3 28 60 61 54 49 43 51 56 54 58 65 61 45 28 29 39 41 39 46 49 40 37 41 38 36 33 35 49 51 44 50 52 45 49 54 48 46 52 48 40 43 43 40 47 55 54 47 43 48 51 51 57 64 65 66 66 64 64 60 49 46 56 64 68 66 60 54 50 51 54 54 52 54 54 53 53 51
11 11 11 15 13 9 11 10 7 3 9 43 70 60 51 53 48 49 53 54 62 64 51 39 31 32 41 41 39 53 56 39 36 42 34 27 27 33 45 47 43 49 55 53 55 60 56 45 43 47 46 41 35 29 29 44 59 59 55 59 55 47 52 58 62 67 63 61 71 66 46 52 71 74 69 64 54 50 49 47 48 49 50 53 51 51 52 50
13 13 13 13 13 12 9 4 5 19 34 51 64 57 49 50 48 49 54 56 59 50 39 42 40 34 41 44 41 51 56 47 44 42 33 29 31 35 46 55 56 56 58 59 58 58 57 46 40 45 48 36 25 24 20 24 42 54 54 55 51 49 56 56 53 61 60 57 73 75 55 59 73 64 56 57 50 46 46 44 43 43 45 48 48 49 51 50
11 15 15 8 10 11 5 7 24 51 65 60 60 59 50 47 48 49 55 60 59 48 40 49 49 40 42 43 38 46 54 56 53 43 37 37 29 26 41 56 65 67 61 55 57 57 54 53 52 52 49 32 19 21 23 25 35 45 49 53 50 46 50 54 53 56 60 60 70 71 60 66 71 55 48 52 45 43 44 41 41 39 39 43 44 46 50 51
12 23 19 6 9 5 3 26 47 62 71 61 54 54 52 54 51 45 48 53 54 51 43 46 53 53 51 44 46 57 56 53 52 40 34 37 29 28 42 52 63 76 69 58 61 58 53 60 66 60 50 34 26 30 34 39 43 43 49 53 55 52 47 52 56 54 56 59 61 62 64 76 75 52 45 49 43 42 44 41 42 42 40 42 43 45 50 53
13 21 14 8 11 2 5 34 51 59 67 58 49 50 52 53 47 41 46 47 46 45 42 44 47 46 45 46 52 57 48 40 41 38 38 45 41 40 48 50 60 83 81 62 59 55 53 62 64 57 48 32 29 37 43 49 46 40 45 49 50 50 45 48 55 57 61 63 66 73 76 77 67 48 43 46 42 43 45 44 48 48 47 47 47 47 49 54
10 12 10 10 9 2 13 35 44 56 64 51 46 51 45 40 40 43 47 49 51 51 48 49 45 38 44 53 56 56 45 31 32 38 40 45 46 46 52 54 59 74 70 55 53 49 47 56 54 49 45 30 25 31 33 39 40 34 36 44 50 52 52 59 65 68 75 70 67 79 84 74 59 47 43 43 44 48 48 48 52 53 53 52 51 51 50 54
9 8 6 7 4 4 20 31 38 61 73 59 50 53 45 35 38 47 47 44 50 53 49 47 44 46 53 56 58 63 53 32 30 43 45 46 51 53 55 56 58 66 67 63 64 54 48 57 51 43 43 38 36 35 28 30 35 33 37 48 61 68 70 74 74 77 85 78 71 84 92 78 57 46 47 48 50 53 52 54 57 56 55 55 55 54 51 54
10 14 15 13 7 9 20 22 25 47 65 62 50 44 44 37 33 42 46 43 45 47 46 45 44 50 57 58 62 68 63 48 44 51 53 56 60 54 53 59 62 69 73 70 67 64 69 74 61 49 47 41 36 32 30 37 40 42 57 70 76 78 76 78 83 88 92 91 85 82 84 81 65 54 57 58 57 59 59 61 62 60 59 59 57 53 51 55
14 26 30 21 10 15 26 25 24 32 42 49 45 39 45 45 37 38 40 39 42 43 44 46 49 55 61 61 58 58 60 58 53 48 47 60 69 55 47 62 74 75 73 69 68 70 72 71 65 62 54 43 39 35 36 48 51 59 81 86 78 77 78 85 94 92 88 95 93 73 71 82 72 60 63 64 63 64 63 64 65 63 61 58 54 52 54 55
18 24 26 22 18 27 37 31 28 33 39 49 53 50 55 56 46 41 37 36 41 39 34 39 49 60 70 68 55 50 55 53 49 49 50 62 73 62 56 72 84 82 75 74 78 73 62 65 74 75 64 55 53 51 51 56 61 74 87 78 67 70 75 83 89 83 79 90 89 72 71 78 69 62 67 66 65 67 66 66 64 59 55 53 53 54 56 56
15 18 19 20 22 30 36 30 23 29 41 54 58 55 59 59 50 48 48 43 41 38 32 35 44 58 76 79 62 53 54 46 42 53 61 62 62 64 67 68 69 73 74 78 84 72 58 71 86 82 70 58 49 52 59 62 68 79 78 66 61 62 64 70 72 71 74 78 75 72 75 71 62 62 64 60 62 65 62 59 56 53 53 54 55 57 56 55
9 13 14 17 22 27 29 25 23 35 50 55 51 51 59 61 52 52 55 46 38 40 41 42 48 61 79 85 73 59 52 47 45 52 60 61 62 69 70 61 63 73 75 76 78 60 46 64 84 80 67 50 36 41 53 59 72 82 73 63 63 61 62 68 66 68 78 79 74 75 77 70 58 54 53 51 53 55 52 52 53 53 54 55 57 59 56 55
5 8 8 14 27 30 26 22 29 49 63 59 53 51 54 56 56 57 55 47 40 40 45 47 54 68 79 78 70 60 51 50 53 52 52 54 57 58 54 59 76 86 86 89 85 67 59 70 81 79 70 53 36 36 45 53 70 86 82 72 71 69 69 71 68 69 79 87 87 84 83 75 59 49 49 49 49 52 53 53 55 54 54 56 58 57 54 57
6 8 5 12 26 32 34 38 40 45 50 51 57 59 50 49 58 56 44 40 44 43 43 48 54 66 71 58 45 43 44 48 54 59 59 60 63 62 59 71 86 88 93 101 94 83 83 83 82 81 73 56 40 42 53 54 62 85 91 77 73 74 70 69 71 69 71 82 90 84 74 63 51 48 54 55 54 55 55 55 56 56 55 57 56 53 55 61
Wind_Speed
6 6 7 5 3 3 4 5 5 6 6 5 5 4 3 3 2 1 2 4 7 10 11 11 9 5 2 2 4 2 2 1 3 6 6 3 3 3 4 4 4 6 6 7 8 7 7 5 6 5 4 4 3 5 5 5 3 2 2 1 4 3 4 5 5 4 2 3 4 4 10 9 5 6 10 8 10 16 16 18 18 19 25 25 22 18 14 10
7 7 6 4 3 5 6 7 7 7 7 6 5 4 2 1 1 2 4 6 8 10 11 11 9 5 3 5 6 3 1 2 6 8 7 3 1 1 2 3 3 5 5 7 7 8 8 6 6 6 6 5 3 4 5 4 3 2 2 1 5 5 5 4 4 4 2 4 6 7 10 10 9 7 6 6 8 12 12 16 18 20 25 26 26 25 23 20
8 7 5 4 5 7 7 8 7 7 6 6 5 4 3 3 3 4 5 7 8 9 10 11 8 4 3 7 8 3 1 2 6 8 6 4 2 1 1 1 2 3 4 5 5 6 7 6 5 5 7 6 4 3 4 3 2 2 2 2 6 6 4 4 3 4 3 6 6 6 8 10 13 10 5 6 8 8 10 15 15 20 30 29 26 26 27 26
7 6 5 6 7 8 8 8 7 6 6 5 5 4 4 3 3 3 4 5 6 7 7 6 4 2 3 7 7 3 2 2 5 7 7 4 3 2 2 2 3 3 3 4 4 4 5 5 5 7 7 6 4 3 3 2 2 1 4 4 6 3 3 5 4 5 6 6 7 7 5 7 14 14 9 6 5 7 13 23 23 26 32 30 28 28 27 28
7 7 7 8 9 9 8 7 7 6 6 5 6 6 5 5 4 3 3 3 3 4 5 8 9 8 7 6 5 4 3 3 5 6 6 4 3 3 4 4 4 5 5 5 4 4 6 6 6 8 5 4 4 2 1 1 1 2 3 5 5 2 2 6 5 6 8 7 8 7 4 6 8 11 16 12 6 12 20 24 25 25 28 27 27 29 30 30
8 8 9 10 10 9 7 7 6 6 6 6 7 7 6 6 5 3 2 2 4 6 8 9 9 9 8 5 2 1 0 1 4 6 4 4 3 4 4 5 6 7 7 6 5 5 6 7 8 7 3 2 3 1 2 2 0 3 4 4 4 4 4 8 7 8 10 8 7 4 5 7 4 7 15 18 20 28 32 28 24 24 24 22 23 27 32 33
10 10 11 11 9 8 7 6 6 6 7 7 8 8 7 6 5 3 5 6 7 8 8 8 8 7 6 5 4 4 3 1 5 6 4 5 5 5 6 6 7 8 8 7 5 5 7 7 8 6 2 3 3 2 2 5 3 3 5 4 4 6 8 11 11 11 11 10 10 7 7 8 6 7 8 17 31 36 36 33 30 29 26 23 22 26 30 33
12 12 12 10 9 7 6 6 6 7 8 8 9 9 9 7 4 3 6 8 8 7 7 7 6 6 6 5 4 5 5 6 7 6 5 6 7 8 6 7 7 7 7 7 7 7 8 7 7 6 2 2 2 1 3 6 4 3 4 5 6 8 11 14 13 13 13 11 12 9 11 11 11 10 9 23 38 36 34 34 32 31 31 29 28 29 29 31
13 12 11 10 8 7 6 6 7 8 9 10 10 11 11 10 5 3 6 8 7 6 6 6 6 7 7 6 5 5 7 9 8 6 6 6 7 8 7 7 7 7 7 7 8 9 7 5 5 5 2 2 1 1 4 4 3 1 4 7 8 12 15 15 13 14 12 11 9 7 10 11 11 9 12 29 33 28 29 27 25 25 28 30 33 34 32 31
13 12 11 9 7 6 6 7 8 8 9 10 11 11 11 11 8 6 7 8 7 6 6 6 6 8 9 7 4 4 8 9 8 6 6 5 6 7 7 7 7 7 7 7 8 8 6 4 5 5 4 2 1 2 2 1 3 5 7 10 11 14 17 13 14 13 9 9 8 7 9 11 10 3 9 26 25 22 25 25 24 22 24 27 29 33 35 35
11 11 9 7 6 6 7 8 8 8 9 10 10 10 9 9 8 7 7 8 8 6 6 6 7 8 9 9 8 6 8 9 7 6 5 5 5 6 7 9 10 8 7 8 8 8 6 4 6 6 4 3 3 3 2 2 5 7 8 10 11 12 14 10 11 13 7 6 6 7 9 10 7 2 12 26 24 22 26 28 29 26 27 29 29 31 32 35
10 9 8 6 6 7 8 8 8 8 8 9 8 7 7 7 6 5 5 6 6 6 6 7 8 8 6 9 12 9 10 11 8 8 7 8 7 7 8 11 11 10 9 9 9 7 5 4 6 5 2 3 4 3 3 4 5 6 5 6 9 10 10 7 7 7 3 2 4 5 7 7 3 8 19 26 25 25 26 27 29 30 30 30 30 32 32 33
9 8 7 6 7 8 9 8 7 7 7 7 6 5 4 4 4 4 5 7 6 5 5 6 8 8 5 6 11 12 12 13 11 10 9 9 8 7 8 10 10 9 11 12 10 7 5 4 5 3 3 3 2 2 5 6 4 6 3 2 6 9 5 6 9 5 1 2 2 5 5 9 7 14 22 22 23 25 25 28 31 32 33 32 32 32 32 33
8 7 6 6 8 9 8 7 7 7 7 7 6 6 5 4 5 6 8 7 5 4 4 6 7 7 5 5 10 13 12 12 13 13 11 9 7 6 6 7 7 6 8 10 9 8 7 6 5 3 5 8 5 3 5 5 4 4 3 3 3 5 5 10 11 4 3 2 0 5 1 9 13 21 26 19 18 21 25 33 35 33 34 33 32 31 32 32
7 6 6 7 9 9 8 7 7 7 7 7 6 6 6 5 6 7 8 5 4 3 2 4 5 5 5 5 8 12 12 13 15 16 14 12 9 7 6 6 6 5 6 6 6 6 8 8 6 5 5 11 10 4 4 4 4 4 4 4 3 2 6 12 10 2 3 4 0 3 2 9 12 23 34 27 21 22 26 34 35 32 31 30 30 29 30 30
6 6 7 9 10 9 7 7 7 7 6 6 5 5 6 8 8 8 6 5 5 4 1 2 3 4 5 5 7 11 13 16 18 19 17 13 10 9 8 7 6 5 5 5 5 5 7 7 7 8 9 11 9 4 4 5 4 4 4 3 5 4 5 9 7 2 3 4 2 1 3 7 9 21 39 40 31 24 22 28 32 31 29 27 26 26 27 27
6 7 9 10 10 8 7 7 7 6 6 6 6 4 4 6 7 7 6 6 7 6 6 3 1 3 6 7 8 11 12 14 19 22 17 11 8 9 8 6 5 7 5 4 6 5 6 7 4 4 8 7 3 2 5 5 5 4 3 2 4 4 4 6 7 7 8 3 3 2 4 9 12 19 35 40 33 25 20 22 25 25 25 24 23 23 24 24
8 10 11 10 9 7 7 9 9 10 12 12 13 12 9 6 5 3 2 2 3 3 6 8 4 3 5 10 11 11 10 12 18 23 17 9 7 8 9 9 8 10 9 5 7 8 8 7 4 2 5 6 4 6 6 2 2 4 4 3 4 4 4 5 7 6 10 6 4 3 5 12 14 16 25 32 29 23 20 20 21 21 22 22 21 21 21 21
10 11 11 10 8 7 9 12 12 12 11 11 12 14 15 15 14 12 10 9 7 3 3 8 9 4 1 10 14 11 8 11 18 24 19 10 9 9 11 12 10 13 12 5 6 9 7 6 5 4 5 5 4 3 3 3 5 5 4 3 4 5 6 7 7 4 6 8 7 4 7 11 14 15 18 26 27 21 20 22 22 21 20 19 18 16 15 15
11 11 11 10 8 9 12 12 10 9 10 9 8 8 9 10 11 14 18 21 18 12 8 9 10 5 2 8 15 13 9 13 22 27 20 13 10 10 12 10 8 13 11 3 3 5 6 6 5 2 4 6 6 4 3 3 4 4 2 2 5 5 7 8 7 5 5 6 6 4 7 11 13 13 12 19 22 16 16 19 20 19 18 17 15 12 9 8
11 12 11 9 9 10 11 9 9 12 14 14 13 11 9 7 5 6 12 17 16 15 15 14 12 9 7 10 16 16 13 18 28 30 21 14 11 10 12 10 6 8 9 5 1 1 5 7 4 5 7 7 7 4 2 2 1 1 2 3 6 4 7 10 6 5 6 5 5 3 7 13 13 12 11 13 13 10 12 14 14 13 14 17 16 14 13 15
13 13 11 10 10 12 11 11 12 15 16 16 16 16 13 10 7 5 7 9 10 12 14 16 18 15 12 14 16 17 20 23 28 33 26 16 12 10 10 10 5 2 8 6 3 3 6 5 5 7 5 4 4 2 2 1 1 1 2 2 5 4 6 9 4 5 8 2 5 6 8 12 12 11 10 6 6 9 13 12 9 7 10 15 16 16 17 17
14 13 12 12 13 14 13 13 13 14 14 15 17 17 15 12 8 3 5 5 7 11 14 17 21 21 18 16 15 16 22 19 18 29 31 20 14 11 8 8 4 1 6 6 6 5 4 2 6 5 2 3 4 5 5 3 2 1 2 2 5 4 3 5 3 8 11 3 4 7 7 8 7 9 8 5 8 12 15 13 9 9 12 16 16 15 15 14
15 14 14 15 16 14 12 12 11 11 10 11 14 15 14 13 11 4 3 3 4 10 16 16 19 23 20 18 15 10 15 17 16 26 30 22 15 8 5 5 4 4 6 4 8 8 2 3 5 4 5 4 2 5 6 5 6 3 2 0 5 6 1 4 5 9 10 3 1 5 7 6 4 7 6 8 13 13 14 12 11 12 13 13 12 11 10 9
15 15 16 17 15 12 11 10 8 8 6 7 10 12 14 14 13 7 1 2 3 8 14 12 14 20 19 19 17 5 8 15 19 24 26 21 15 6 3 5 5 5 5 1 7 7 1 3 4 4 5 6 4 3 4 3 5 5 3 4 5 7 5 6 7 7 5 4 3 5 6 5 5 6 6 6 10 10 10 10 6 5 9 9 6 6 6 5
15 16 17 15 12 11 9 7 7 8 2 4 8 11 14 15 12 7 2 4 3 6 11 10 9 15 17 20 18 4 5 9 14 23 25 17 13 7 3 5 5 4 3 2 4 2 1 4 4 3 3 6 6 3 1 3 5 5 3 4 4 5 6 6 5 3 2 3 4 4 4 5 7 6 6 4 7 9 8 8 8 7 0 3 1 3 3 3
17 18 17 14 11 9 6 4 8 8 1 4 9 13 15 15 11 4 2 5 4 5 8 9 8 12 15 17 17 6 2 8 9 20 27 16 10 11 6 3 3 4 3 2 3 1 2 7 7 5 5 6 6 4 2 3 3 4 4 1 5 8 7 6 1 1 2 3 5 3 3 2 5 7 8 6 7 8 7 7 9 12 12 8 6 4 4 4
19 17 14 12 9 5 3 4 8 6 1 6 11 15 14 12 7 1 4 5 4 5 5 7 7 13 14 13 17 12 3 8 6 13 27 20 9 9 10 4 1 3 5 4 3 3 2 4 5 4 6 5 3 4 4 2 1 6 6 3 7 7 5 3 3 3 2 2 4 5 1 1 5 8 8 7 5 7 8 8 8 12 16 15 12 10 8 8
18 14 12 11 7 3 3 3 4 5 5 9 12 14 13 9 3 1 6 3 3 5 5 8 8 14 17 11 16 16 8 9 7 9 23 27 15 7 5 5 3 1 7 7 5 4 2 1 2 1 4 2 5 7 4 5 3 7 5 5 3 1 0 1 3 1 2 3 2 5 1 2 5 8 7 4 3 6 8 7 8 13 18 17 16 16 14 11
14 11 11 9 6 4 3 1 2 4 7 10 13 13 10 5 3 4 6 1 1 6 8 9 6 12 17 9 10 16 9 8 10 10 18 25 25 17 5 5 8 4 5 7 4 3 4 2 2 2 1 3 6 7 4 6 5 7 6 5 4 4 3 2 2 3 4 2 5 5 2 3 3 7 5 3 3 4 5 8 10 15 20 19 20 22 19 14
12 10 9 8 5 2 1 1 3 5 8 11 13 12 5 3 4 6 4 2 2 7 8 6 5 8 11 5 5 12 7 7 12 11 12 14 19 21 10 5 9 6 5 7 6 7 5 0 1 3 3 3 3 5 2 2 2 5 5 4 5 5 4 4 5 4 3 5 6 5 2 3 3 6 5 6 7 3 2 7 11 13 18 24 29 30 25 17
10 8 8 7 7 5 5 6 9 11 12 13 12 8 1 4 6 3 1 5 3 4 4 3 5 6 6 4 5 8 4 6 10 7 5 5 7 10 9 5 5 5 6 5 6 8 4 1 4 5 3 2 2 4 5 4 4 6 5 5 5 5 5 4 5 3 1 7 6 2 1 1 5 8 8 9 10 7 4 8 11 12 17 28 34 34 32 26
8 6 4 4 6 8 8 10 12 12 12 11 6 1 4 6 4 1 3 4 1 2 3 3 5 5 5 5 6 7 3 3 8 7 3 3 5 4 4 5 4 3 2 2 4 6 5 5 6 4 2 1 3 3 5 4 5 6 3 3 3 2 4 4 4 3 4 9 6 2 2 3 5 6 8 8 9 11 12 15 17 19 25 34 38 42 45 43
7 5 4 4 5 8 10 12 13 11 11 7 2 6 10 7 1 2 3 3 2 4 3 2 6 6 5 4 3 5 3 2 5 6 5 4 5 5 5 5 6 4 2 1 2 2 4 5 4 2 2 3 3 1 1 2 4 4 2 3 1 2 1 4 4 3 6 9 9 0 4 4 4 4 4 5 9 15 23 28 32 38 41 43 45 47 48 49
6 4 3 2 5 6 7 10 9 7 4 5 10 8 8 4 3 1 2 4 2 4 5 4 4 5 5 4 3 3 2 3 4 5 5 4 3 3 3 4 5 4 3 3 1 1 3 6 8 4 3 2 1 2 2 1 3 3 1 2 1 2 4 2 4 5 4 7 7 2 2 5 4 6 8 8 14 23 32 36 39 41 42 43 43 42 44 46
4 2 1 1 3 6 9 10 5 2 5 14 14 6 3 3 3 2 1 2 1 3 5 6 5 5 5 5 4 5 3 2 4 4 3 2 1 1 1 2 3 4 3 2 1 1 2 6 8 6 5 3 2 2 1 1 2 2 1 1 3 3 5 1 4 3 2 4 5 2 4 5 4 8 10 16 20 23 26 29 32 34 37 38 38 39 42 44
5 5 6 6 7 8 10 12 8 10 14 18 12 2 2 2 2 3 1 2 1 2 3 4 3 3 3 3 4 7 6 4 4 4 3 2 1 1 2 3 1 3 2 2 1 2 1 6 7 4 5 4 2 4 4 3 2 1 1 4 3 2 4 3 1 4 4 4 5 4 9 10 6 5 11 22 23 21 21 21 25 31 34 34 34 37 40 43
10 12 15 18 17 10 8 12 9 15 25 21 7 4 3 1 2 3 3 1 2 1 5 3 0 1 0 1 4 6 5 5 5 4 2 3 3 1 2 3 1 4 3 1 1 2 1 4 7 4 4 7 5 4 4 3 2 2 3 4 2 2 3 2 1 2 3 6 5 6 11 9 4 3 10 18 18 20 21 19 20 25 29 31 34 38 41 42
11 13 17 19 21 19 12 6 5 16 24 13 2 3 2 1 1 3 3 2 3 2 4 0 0 2 1 1 2 5 4 3 3 4 2 2 3 0 3 1 2 4 6 1 3 2 1 1 6 5 3 5 5 4 4 5 4 2 3 4 2 2 4 2 1 2 2 6 5 5 8 4 4 4 9 14 15 16 18 18 17 21 27 31 34 37 41 42
6 8 11 11 13 16 13 12 19 24 16 4 3 3 0 1 1 3 2 2 2 2 2 1 1 3 2 1 2 2 2 2 1 2 1 1 3 2 2 2 2 5 7 2 2 2 2 1 4 6 4 4 4 2 3 4 4 3 3 4 4 2 1 2 3 2 2 5 3 4 6 1 3 4 8 12 13 13 15 16 15 21 28 32 35 38 39 41
6 6 8 12 9 4 6 15 22 16 5 2 3 2 0 2 2 1 2 2 2 3 2 1 2 1 1 2 2 1 2 2 1 1 2 1 1 2 1 2 1 4 5 3 2 1 1 1 2 6 5 5 6 6 4 3 4 3 2 3 3 3 2 3 6 2 2 4 3 4 7 1 1 3 7 11 12 13 17 18 17 24 29 31 35 37 36 37
11 5 6 14 14 7 12 15 11 5 4 4 3 3 2 2 1 3 4 4 3 3 3 3 2 1 1 1 2 1 2 2 2 1 1 2 3 3 2 1 1 2 1 1 1 1 1 2 0 6 6 7 13 10 1 2 4 4 3 3 1 1 1 2 8 6 4 5 3 3 6 3 2 3 8 11 14 18 22 23 22 25 29 31 35 37 36 35
17 10 6 8 8 9 16 12 7 5 6 2 2 4 4 2 3 5 4 5 4 3 3 2 1 2 1 1 1 2 2 1 3 2 2 3 4 4 3 1 2 1 2 1 2 1 1 2 1 5 6 7 10 6 3 2 2 2 3 2 2 3 3 5 7 3 4 9 5 3 5 3 0 7 14 20 26 27 30 31 28 26 28 33 36 37 37 35
24 21 16 9 3 7 12 6 1 3 2 1 4 5 4 5 6 5 3 5 4 2 2 1 1 2 1 0 1 1 2 1 1 2 2 2 3 4 4 2 1 1 2 0 1 2 2 1 1 4 7 9 8 6 4 3 2 1 4 2 4 6 9 6 4 2 3 7 6 6 6 4 6 11 19 28 30 30 35 39 35 31 30 33 36 37 37 35
17 20 23 19 14 15 14 8 7 6 2 3 5 4 3 5 6 7 4 4 5 4 2 2 2 1 2 2 2 3 2 1 2 2 3 2 4 4 3 4 2 0 2 2 1 0 1 2 1 1 3 7 8 9 8 6 5 5 7 10 11 12 13 8 5 4 3 6 8 5 5 7 11 13 19 24 24 25 32 38 38 37 37 37 37 39 40 36
8 7 11 17 20 23 19 12 10 7 3 4 4 3 4 3 3 6 6 5 7 6 3 3 3 2 2 5 4 4 3 1 2 2 3 4 5 3 2 4 3 0 1 2 1 1 1 1 3 6 6 6 8 11 7 5 7 9 10 14 13 13 13 7 4 3 5 8 7 3 6 12 14 15 18 20 20 20 24 31 36 37 38 38 38 42 44 38
7 2 2 5 11 16 16 13 11 7 3 3 2 1 4 3 2 5 5 4 7 7 2 3 6 3 2 5 4 3 5 4 3 3 3 4 5 6 7 4 1 1 1 1 1 2 3 3 5 7 10 10 11 13 10 7 6 7 9 12 13 13 13 9 5 4 7 8 6 5 12 15 14 16 19 19 19 18 21 27 32 34 36 37 39 43 42 36
6 4 4 4 3 5 7 8 12 13 7 4 3 2 4 5 3 3 3 3 5 7 4 2 6 5 1 2 2 2 6 6 5 3 3 3 4 7 8 4 5 3 2 1 1 2 2 4 4 3 7 10 10 12 12 7 3 7 10 11 13 14 13 12 9 7 6 6 7 10 15 15 14 16 17 17 18 19 23 27 31 34 35 37 40 41 36 33
12 10 8 8 7 6 6 5 10 15 12 6 5 3 3 5 4 1 2 3 3 7 7 3 6 7 4 2 1 0 3 3 5 5 2 3 5 3 5 3 4 5 5 2 2 1 2 4 4 3 8 11 8 7 6 3 2 9 10 10 12 12 13 14 12 10 8 9 10 12 16 14 12 13 15 20 24 25 28 32 33 34 36 39 41 37 32 36
12 11 12 16 14 10 8 5 6 10 8 6 5 3 2 3 2 2 1 3 2 5 6 3 6 8 3 2 3 3 4 5 6 7 2 2 5 1 1 2 1 5 7 3 2 2 2 3 5 4 8 14 11 4 2 1 7 9 10 11 12 14 16 16 15 11 8 10 10 12 14 12 12 19 25 30 34 33 34 37 37 36 40 44 41 34 33 41
18 16 17 17 10 8 8 6 4 5 4 6 3 1 2 2 0 1 1 2 2 1 2 2 6 6 2 1 3 6 8 7 10 13 10 8 8 6 3 1 2 5 6 3 2 3 2 3 5 7 7 13 11 11 14 8 6 9 13 17 16 15 13 13 14 10 9 9 9 12 12 10 14 23 28 31 34 34 34 36 37 40 46 46 37 34 39 45
20 16 13 13 7 7 7 4 4 6 2 2 1 0 1 1 2 3 2 1 0 1 3 3 4 3 3 3 5 9 15 15 17 21 20 19 21 19 17 12 6 3 2 2 2 1 2 1 4 4 5 12 13 14 17 12 2 2 8 14 15 14 14 15 13 12 10 6 6 9 9 13 19 23 23 23 25 28 31 35 37 41 44 41 36 39 44 47
Wind_Direction
149 140 137 139 129 104 101 97 89 84 84 88 95 111 135 163 187 238 319 340 336 331 332 329 335 339 306 193 156 120 84 54 3 353 0 353 293 276 274 275 276 284 288 290 291 295 301 290 274 281 278 273 272 262 250 242 223 186 126 155 250 224 212 206 196 215 195 260 275 233 209 202 246 233 221 248 238 234 239 236 233 232 234 237 241 250 255 245
144 140 142 141 124 113 106 99 92 86 81 76 77 78 70 80 310 326 324 326 323 326 328 323 325 311 263 180 160 141 101 4 353 351 357 6 331 246 262 273 278 284 285 288 294 307 312 304 282 284 298 299 289 262 233 216 196 173 132 187 242 212 215 209 195 220 204 265 272 254 229 216 237 239 218 240 244 235 242 247 238 239 240 235 236 241 246 248
144 144 148 142 129 117 108 99 92 85 77 70 67 57 39 21 348 339 327 322 325 333 333 327 326 297 231 175 162 154 159 345 350 357 5 19 44 79 5 321 300 297 291 296 306 319 320 321 309 302 314 309 297 269 224 210 227 216 152 235 247 221 244 245 218 240 258 280 286 270 242 225 239 243 225 232 260 256 238 242 233 235 242 236 231 233 240 243
149 150 151 141 130 117 108 98 90 83 73 67 60 54 45 21 356 338 323 327 338 344 347 358 30 77 136 159 160 177 240 317 349 6 10 9 18 7 358 337 326 319 312 317 319 322 317 321 317 314 318 299 290 279 226 215 250 225 156 210 239 214 279 259 241 270 285 288 278 271 261 246 247 241 231 230 274 271 241 243 239 238 249 249 237 231 234 238
154 151 146 136 125 115 106 98 91 83 73 69 65 60 49 31 13 342 326 345 8 34 63 77 85 93 102 133 166 226 269 327 350 9 11 352 349 340 335 328 328 323 322 325 313 315 313 313 318 316 310 287 301 313 257 203 219 259 217 234 245 199 277 270 265 282 288 288 276 268 254 254 253 237 233 224 222 254 259 260 256 253 260 262 251 241 235 235
153 145 137 129 121 114 107 101 89 80 77 75 71 58 46 36 21 17 59 78 91 100 100 97 94 96 99 106 128 268 292 20 344 2 4 344 340 333 331 325 326 326 330 328 308 307 315 325 328 316 295 297 310 269 301 326 230 267 274 282 278 243 258 282 282 284 289 283 266 253 250 261 268 256 244 228 231 256 271 273 272 271 270 268 262 251 241 237
145 137 130 126 120 115 107 95 82 81 83 78 66 49 40 30 20 72 113 118 119 115 110 103 93 81 68 54 44 29 43 24 344 352 347 349 350 339 336 336 335 330 332 329 318 316 317 335 338 323 301 319 302 232 310 314 270 227 268 304 303 271 267 283 284 282 288 277 265 265 273 276 261 269 274 251 253 264 274 274 271 273 272 268 261 254 248 244
135 130 127 124 119 112 97 82 80 87 83 69 55 45 42 31 24 125 134 135 131 120 111 95 69 34 8 359 351 350 359 355 350 342 342 360 359 347 340 345 340 331 333 324 328 334 322 335 348 343 309 278 264 220 353 330 301 192 250 299 305 289 285 288 285 279 282 278 279 276 269 271 266 277 288 272 273 279 280 278 276 272 267 262 258 257 253 248
128 126 124 121 114 101 83 80 90 90 76 60 50 46 46 42 45 112 126 134 133 117 98 68 35 9 355 337 329 354 1 358 354 341 347 3 8 8 359 349 338 329 336 329 338 344 326 322 344 350 303 257 273 329 17 6 320 219 268 302 301 294 299 295 281 278 283 280 282 275 271 277 282 301 282 273 286 299 294 289 287 280 269 262 257 256 253 249
124 123 121 116 106 88 81 92 97 86 68 56 49 48 55 59 67 95 109 119 119 104 82 57 26 13 12 4 16 26 2 360 359 345 347 353 9 27 26 17 3 343 338 334 338 338 320 300 314 329 305 297 16 335 7 55 289 303 302 300 294 294 300 294 274 278 287 283 277 262 273 282 284 331 272 279 301 313 302 300 296 286 275 272 264 258 254 251
124 122 120 111 94 84 92 106 97 79 65 54 50 53 67 78 85 98 107 112 108 95 75 49 16 9 15 27 53 46 6 8 1 343 336 335 355 16 30 32 23 12 355 344 338 331 321 297 310 322 303 309 328 306 307 293 291 305 319 306 300 310 313 306 282 282 284 285 289 269 270 282 284 197 253 282 308 306 298 300 297 289 280 279 275 268 261 256
126 123 118 103 88 93 107 108 91 74 60 51 51 55 68 82 89 97 117 120 102 83 60 34 18 13 12 37 49 39 21 22 11 358 345 343 354 357 17 22 16 23 21 7 358 352 350 325 327 330 307 306 312 336 328 316 309 304 342 324 311 341 339 343 332 296 263 263 324 324 296 298 256 222 262 289 309 302 298 297 295 295 290 286 283 277 270 265
128 125 117 99 94 107 113 103 83 65 52 50 52 47 50 62 66 86 124 114 87 78 54 26 16 14 21 46 41 34 29 29 21 14 360 350 352 343 356 2 358 22 32 23 16 18 28 3 352 360 17 4 306 336 320 317 332 304 348 25 330 352 332 335 359 335 296 256 331 22 320 301 275 255 274 296 305 301 302 298 295 296 294 292 289 284 278 273
131 127 115 99 104 114 110 92 69 53 49 56 60 56 56 61 71 103 121 102 72 73 44 15 0 5 41 54 34 32 33 31 24 16 6 355 352 340 339 343 342 11 32 29 17 13 22 12 9 32 42 23 344 311 324 340 6 318 345 38 10 3 295 314 340 318 310 297 152 81 211 284 295 290 296 304 301 301 302 298 297 296 294 293 291 288 285 281
134 126 111 104 114 115 101 81 59 59 72 74 76 70 69 90 109 120 120 98 65 62 20 1 5 19 50 49 32 31 33 34 25 15 5 355 355 356 349 349 346 355 14 19 2 346 352 4 28 46 29 11 4 359 357 359 6 13 17 341 336 9 293 312 329 265 270 297 181 104 226 276 289 298 307 314 309 303 298 296 300 300 297 296 294 292 288 286
134 120 113 115 118 112 91 71 59 73 92 85 80 76 82 102 114 123 123 104 82 66 13 325 12 44 46 34 29 29 32 30 22 14 3 352 353 358 4 12 359 346 345 347 351 340 343 10 51 51 34 18 9 31 40 16 350 8 38 316 300 332 318 315 325 352 341 305 316 92 240 280 285 297 308 315 317 312 299 296 305 310 308 306 302 297 293 289
135 126 124 124 121 109 82 67 66 81 98 86 75 77 99 111 111 114 105 91 93 76 61 51 48 84 52 33 22 16 21 21 15 11 4 355 355 356 2 7 359 2 9 19 28 38 14 21 61 37 36 36 352 42 53 18 335 330 19 343 281 281 308 314 310 350 17 354 312 326 233 264 277 291 302 311 322 323 312 306 313 322 325 324 318 309 301 294
135 132 132 131 124 106 80 81 89 93 93 85 79 79 83 93 105 116 102 101 116 83 54 41 46 117 44 19 7 352 358 10 8 7 6 7 12 10 5 1 3 10 15 37 37 36 17 14 61 39 21 25 360 50 59 358 289 286 313 323 308 295 277 287 289 335 19 359 301 298 270 275 284 293 298 310 327 329 325 332 337 343 344 340 335 325 315 303
135 136 138 136 125 105 102 103 96 88 81 77 80 83 85 87 84 79 81 86 82 81 50 31 43 109 344 1 4 355 359 13 10 8 10 20 25 18 12 12 22 22 18 20 9 20 25 16 48 40 355 341 334 70 114 200 195 230 262 254 286 303 278 271 271 289 11 341 296 269 277 286 294 298 300 314 330 337 343 355 358 1 3 356 348 341 329 314
136 138 140 137 124 116 119 111 89 77 75 72 78 87 88 86 78 70 73 74 71 72 72 49 46 58 21 1 12 20 29 29 21 16 16 21 24 19 18 22 38 33 20 343 318 6 49 54 45 3 290 287 275 227 191 201 186 216 258 276 282 284 282 290 274 271 16 352 283 252 284 289 293 295 293 310 326 345 354 354 355 2 12 12 12 13 13 13
137 137 138 132 123 122 124 114 91 86 81 73 72 75 68 61 74 78 72 73 72 69 65 57 49 44 39 19 17 23 29 33 28 25 26 25 25 23 17 23 49 31 353 319 278 7 58 58 7 266 244 258 269 247 210 241 198 242 282 298 308 283 274 297 280 279 18 25 276 308 325 302 299 300 299 313 328 348 353 342 336 352 19 32 43 53 62 73
140 139 138 132 130 129 129 121 104 92 79 65 61 64 61 58 74 108 99 89 79 65 56 49 44 42 38 27 23 26 28 29 23 21 25 27 32 32 18 29 64 26 336 348 51 20 42 46 299 263 245 272 306 21 85 202 160 351 336 332 321 303 286 302 287 310 354 27 280 330 334 300 296 299 299 316 326 333 350 349 331 348 41 57 65 73 81 87
143 142 139 137 139 139 136 128 112 97 79 60 51 52 54 51 52 100 136 120 85 53 38 35 34 30 29 26 25 36 39 34 12 10 15 18 26 32 28 34 53 24 349 18 72 58 45 7 284 278 343 353 340 14 46 35 38 360 340 20 315 316 351 310 302 332 329 290 256 309 313 293 305 321 312 321 330 336 355 14 43 67 76 80 80 79 80 83
146 144 143 144 144 143 141 135 124 110 87 55 41 38 37 32 30 51 148 137 82 38 26 27 25 22 21 15 13 38 52 41 19 7 10 13 16 20 24 21 35 38 356 9 88 92 112 285 302 339 22 38 358 360 33 27 358 317 237 181 303 303 292 252 281 323 320 309 317 337 332 301 322 345 316 317 337 343 352 13 61 85 91 92 91 89 85 84
151 150 148 146 142 142 144 141 145 142 107 43 29 21 18 14 12 21 64 94 52 6 12 19 17 16 12 5 6 56 83 42 26 9 6 14 18 13 13 21 39 22 346 33 88 79 69 297 327 352 14 43 62 22 34 42 355 327 255 214 259 280 266 262 294 327 349 355 350 29 12 296 313 334 277 298 334 330 335 354 23 78 109 111 102 108 118 126
153 150 147 143 142 148 150 156 178 179 172 8 7 1 0 358 1 16 46 72 41 333 356 8 6 10 7 2 4 68 110 27 21 13 9 16 22 31 22 6 38 10 325 111 86 71 345 353 14 46 38 39 45 24 294 92 36 338 256 206 245 286 287 287 311 355 21 305 303 68 91 278 320 320 270 301 322 304 322 344 332 322 301 143 175 177 181 184
151 148 145 145 149 155 155 170 182 177 164 358 354 348 346 348 355 2 25 49 24 320 351 3 358 3 5 6 12 64 122 333 1 18 16 19 24 48 57 347 28 8 310 113 54 354 311 351 11 42 46 35 26 350 263 114 60 292 237 198 311 308 297 290 310 156 230 279 319 25 115 256 308 289 284 332 329 307 325 335 324 313 303 300 289 254 251 248
150 149 149 150 150 154 161 175 183 184 323 336 337 337 337 344 347 2 88 70 350 333 357 349 352 4 10 29 39 63 84 341 3 12 18 31 28 42 55 34 107 332 345 93 108 294 286 349 348 9 31 24 347 299 263 143 139 259 252 295 302 289 270 250 151 196 271 23 333 317 68 322 285 278 302 349 340 308 319 323 319 310 303 299 290 280 271 259
150 152 154 149 133 113 133 164 205 232 300 320 328 332 336 348 345 75 77 91 316 345 354 350 356 353 360 33 41 37 42 25 27 354 19 38 38 40 63 28 81 181 4 72 130 271 271 273 294 96 65 349 278 274 237 169 239 278 289 309 312 13 27 111 122 127 12 51 272 274 10 27 290 286 307 349 344 307 311 312 308 313 314 304 294 294 287 275
151 156 156 148 125 96 114 70 287 264 301 317 325 331 336 1 62 72 47 53 318 344 336 354 357 335 351 15 16 11 24 27 17 6 20 35 38 45 82 359 28 78 11 34 78 316 297 253 242 147 144 260 280 289 233 183 256 317 353 340 346 24 37 52 76 79 49 348 253 237 150 84 305 289 280 265 300 320 315 309 311 317 317 316 318 320 315 298
155 159 163 165 164 143 122 3 322 300 311 317 320 325 333 21 62 88 58 314 314 348 342 351 339 340 7 33 356 353 1 1 7 18 18 21 30 35 43 1 6 34 14 5 15 349 338 32 262 271 253 271 311 312 295 188 281 1 23 3 353 347 6 19 355 36 49 295 256 221 148 115 237 273 265 257 280 294 264 289 308 310 313 324 331 333 333 318
159 164 173 192 209 239 271 286 299 303 307 313 313 307 311 48 35 82 339 321 330 353 348 313 316 347 2 18 7 344 337 349 358 22 29 17 32 31 38 32 353 10 16 356 351 346 340 239 290 300 264 273 352 340 336 348 13 18 21 30 26 353 356 360 330 359 302 264 247 180 22 284 226 251 263 274 288 293 276 287 299 299 310 327 334 339 344 337
166 170 192 234 245 263 278 286 297 301 303 311 318 343 91 74 43 324 297 333 11 320 315 283 305 333 343 12 7 334 342 356 348 7 22 41 56 33 27 37 30 34 14 327 349 351 335 301 321 342 275 266 74 37 344 324 344 356 14 63 54 33 5 322 295 323 291 277 277 148 140 283 283 263 249 251 273 296 320 328 336 343 342 346 354 1 3 359
164 174 219 258 273 279 288 292 294 297 297 303 52 72 68 78 79 336 313 285 291 322 333 307 315 338 11 40 346 324 9 335 339 15 3 12 40 11 354 5 23 53 104 71 29 10 355 313 311 350 306 346 42 119 213 255 306 313 184 133 100 133 130 272 254 268 286 293 298 335 139 232 272 297 276 276 306 339 357 2 9 11 9 10 12 14 12 9
156 182 224 287 304 301 308 306 305 301 280 102 85 62 72 102 241 294 287 265 292 319 315 329 359 18 8 349 322 357 44 313 345 36 14 21 45 357 349 333 352 35 77 55 327 359 22 279 262 274 279 283 287 228 138 70 309 291 161 88 357 186 171 232 221 215 267 301 295 289 212 224 250 310 328 352 1 12 15 15 20 17 12 14 13 10 9 7
139 153 64 21 16 24 2 342 337 225 150 100 77 48 101 151 224 168 227 294 3 314 318 347 23 38 352 324 330 353 6 321 357 29 17 31 86 316 335 284 336 30 73 92 282 354 32 280 283 323 308 210 187 263 177 177 290 326 32 309 274 185 145 178 269 275 343 298 279 301 285 289 331 323 349 18 15 15 16 15 18 13 8 10 8 5 3 1
112 90 68 61 51 35 24 34 76 131 108 85 76 86 160 187 192 177 278 334 277 269 50 33 15 26 345 320 316 327 342 353 3 23 14 358 336 350 342 296 360 51 81 134 253 258 175 287 294 311 295 278 299 303 270 216 201 56 297 268 285 54 95 107 292 334 357 279 275 325 297 306 344 326 4 19 10 6 9 9 9 7 6 5 1 359 358 357
99 83 65 51 41 36 61 66 84 109 91 77 77 121 126 194 182 211 272 314 241 282 71 77 346 85 138 290 303 310 341 4 358 8 11 346 339 82 61 329 359 57 33 101 244 288 146 299 296 254 253 295 328 342 313 280 213 172 265 287 18 17 322 14 359 294 316 287 289 313 300 316 17 346 9 18 6 1 1 0 4 2 360 358 354 353 352 353
90 74 58 48 46 51 67 98 122 96 84 75 83 114 120 196 180 243 270 274 221 109 66 115 252 34 81 147 300 308 340 4 345 358 40 23 330 111 100 34 274 9 7 81 175 286 54 297 294 278 257 302 343 10 337 317 313 345 337 329 16 178 215 234 237 198 255 277 283 311 307 345 45 356 17 19 4 1 358 357 359 354 352 351 349 348 347 348
73 66 53 40 47 54 66 97 90 79 74 79 137 122 166 174 203 257 288 290 239 94 47 263 77 11 338 354 324 309 346 351 328 339 5 24 322 287 102 118 254 328 351 44 144 307 14 127 271 288 308 342 345 300 268 289 299 340 355 320 299 284 249 273 265 163 210 266 269 292 290 42 57 348 25 19 1 360 357 354 351 347 347 347 345 345 344 343
80 74 41 32 39 61 97 80 64 58 62 85 92 107 100 134 185 281 360 341 353 45 47 120 97 51 342 354 343 301 324 324 318 311 285 320 333 299 305 146 192 332 357 35 47 343 349 165 255 299 326 340 294 254 218 221 215 183 213 244 253 279 327 311 289 268 223 240 206 263 286 282 80 344 23 17 360 356 351 349 345 342 344 344 342 341 339 338
81 69 23 48 60 90 100 73 32 17 89 73 61 85 97 139 91 30 19 10 15 17 36 81 78 58 114 307 307 303 328 303 282 308 263 239 222 227 234 168 91 17 47 354 318 344 71 114 249 281 273 273 277 279 294 193 187 155 201 211 191 300 75 262 280 294 296 273 220 251 282 236 188 9 24 11 356 350 347 345 340 336 338 340 339 338 336 334
71 60 39 66 72 80 87 73 358 14 67 76 99 78 71 85 51 32 20 22 16 356 26 47 24 36 73 275 354 329 326 275 242 273 290 259 250 237 219 181 21 100 121 344 320 12 32 86 14 292 281 275 275 291 51 116 126 99 260 222 132 316 315 252 263 302 295 281 279 272 268 232 139 12 9 358 352 349 346 344 339 332 332 336 336 336 335 333
72 62 53 61 110 103 95 102 83 66 69 91 78 53 46 63 50 31 23 26 16 7 48 32 8 20 327 306 70 284 301 343 264 287 321 259 259 269 226 199 332 158 158 277 354 15 336 261 34 339 324 324 322 341 350 321 17 349 276 349 48 353 335 300 280 351 277 274 299 288 273 299 346 356 359 356 351 346 342 339 335 331 330 331 332 332 332 331
74 63 56 62 92 103 97 110 123 116 132 84 62 19 31 56 44 38 45 40 29 40 62 344 302 312 326 2 23 322 335 12 287 312 349 286 266 278 217 216 269 182 210 258 235 331 277 219 112 72 311 316 320 319 318 324 335 313 318 356 17 9 354 327 301 325 304 314 327 303 283 315 331 349 356 352 346 339 334 331 327 328 328 328 329 330 330 328
77 69 54 58 74 82 81 84 92 99 126 102 66 13 38 58 33 37 47 48 32 36 67 16 333 301 6 32 25 330 306 286 296 315 328 291 274 301 287 260 283 324 310 321 186 146 43 244 209 183 200 245 267 277 304 349 322 315 346 1 6 7 3 358 348 332 310 311 309 306 330 323 327 348 350 342 338 332 324 321 321 322 324 325 327 328 327 325
77 62 34 54 61 65 64 57 60 73 116 115 94 20 29 11 334 21 36 43 25 23 70 50 30 45 13 17 29 323 301 321 333 300 286 272 265 300 320 322 354 354 5 47 124 103 44 304 246 199 214 237 254 274 301 337 324 338 13 10 4 3 7 21 19 324 311 307 294 330 337 322 323 340 338 331 328 323 315 314 315 317 319 323 325 324 322 321
89 92 75 86 74 49 51 47 59 67 61 63 91 69 28 25 16 22 6 353 20 24 32 21 21 32 309 308 44 327 318 338 334 296 288 300 306 324 333 17 74 48 33 45 324 102 106 278 264 210 244 254 258 274 289 303 354 54 43 16 9 7 6 9 349 314 316 303 286 317 326 318 322 331 327 320 314 308 307 306 309 315 320 323 323 320 319 323
105 102 73 80 93 88 90 77 70 67 49 38 64 47 45 55 42 325 308 339 1 10 25 25 333 336 302 249 140 310 314 334 313 298 286 312 319 329 320 334 65 42 25 356 304 94 125 277 292 302 293 293 284 263 257 244 98 67 46 22 15 9 4 359 340 312 298 276 274 311 322 316 323 326 318 317 312 307 311 313 314 318 322 323 321 317 319 326
110 110 103 99 88 67 68 56 60 71 44 28 58 37 42 81 35 314 347 35 11 340 15 33 305 310 296 223 180 221 244 215 245 264 231 326 321 286 249 277 324 3 4 5 327 36 72 297 326 359 318 311 318 322 328 101 120 88 45 24 12 5 4 357 342 321 296 278 281 311 322 318 326 329 326 327 328 325 323 322 321 323 325 322 318 316 321 326
112 117 116 106 78 24 40 43 47 84 38 14 48 3 4 67 223 234 30 55 114 285 323 294 292 303 323 288 213 247 273 258 250 261 261 267 268 245 243 311 23 360 353 357 339 10 29 304 337 15 331 308 322 336 330 338 110 95 39 20 5 360 358 342 330 314 284 279 301 320 325 321 324 328 327 329 331 328 323 321 321 322 322 318 314 316 321 323
113 118 115 103 81 11 23 36 37 70 72 349 32 183 46 67 211 168 117 317 265 321 303 277 283 304 334 325 303 302 306 300 286 281 277 267 258 255 262 275 297 311 300 339 332 330 67 11 329 357 321 300 315 328 323 324 347 92 40 23 0 348 341 329 320 308 287 277 323 329 321 321 325 329 329 328 328 325 319 317 316 316 314 312 313 317 319 320